Погода в Рымникском

Россия / Челябинская область     52°30′05″N   60°08′50″E
темп.,
°C
ветер,
м/с
пор.,
м/с
влажн.,
%
обл.,
%
осадки,
мм/ч
давл.,
гПа
погр.,
м
18 мая, вт
вт1823:00+19з355619 0.0 101983
02:00+19сз334987 0.0 101742
05:00+17зюз335720 0.0 101731
08:00+22сз454257 0.0 1016221
11:00+28сз45285 0.0 10151341
14:00+30ссз451944 0.0 10143555
17:00+27ссв882893 0.0 10131356
20:00+22с4104674 0.1 1013341
19 мая, ср
ср1923:00+17зюз356729 0.8 101593
02:00+16ссв611695 0.1 1015292
05:00+13св714850 0.1 1017424
08:00+15св9127558 0.0 1018745
11:00+19св810510 0.0 10191283
14:00+21св89390 0.0 10191867
17:00+22всв89320 0.0 10191993
20:00+19всв611380 0.0 1019517
20 мая, чт
чт2023:00+15всв511481 0.0 1022284
02:00+12всв411545 0.0 1022232
05:00+11всв48595 0.0 1023137
08:00+16в58451 0.0 1024597
11:00+20вюв67320 0.0 10231590
14:00+23вюв66250 0.0 10221857
17:00+23вюв56241 0.0 10212084
20:00+20вюв47340 0.0 1021160
21 мая, пт
пт2123:00+16юв47430 0.0 1022114
02:00+14юв33510 0.0 102140
05:00+13юв34540 0.0 102242
08:00+18юв46400 0.0 1022365
11:00+23ююв45270 0.0 10211711
14:00+26ююв45210 0.0 10202263
17:00+26ю442311 0.0 10202779
20:00+23ю333593 0.0 102036
22 мая, сб
сб2223:00+19вюв114721 0.0 102112
02:00+16юз115256 0.0 102111
05:00+15ююз125216 0.0 102211
08:00+20з11456 0.0 1023210
11:00+25з113365 0.0 10221684
14:00+27з222692 0.0 10213165
17:00+27ссз1226100 0.0 10212659
20:00+25св0132100 0.0 102111